Location: Congrier
(47.8099°N, 1.1170°W)
Time: 08:53:54
(UTC+00:00)

Cosmos 2369 - Pass Details

Date: 28 January 2023
Orbit: 838 x 857 km, 71.0° (Epoch: 23 March)

Event Time Altitude Azimuth Distance (km) Brightness Sun altitude
Rises 18:20:00 0° 206° (SSW) 3,378 7.4 -13.7°
Reaches altitude 10° 18:22:26 10° 207° (SSW) 2,449 6.6 -14.1°
Maximum altitude 18:28:04 87° 298° (WNW) 849 3.7 -15.1°
Drops below altitude 10° 18:33:46 10° 27° (NNE) 2,475 5.8 -16.0°
Enters shadow 18:34:15 - 27° (NNE) 2,658 5.9 -16.1°
